When you browse on this site, cookies collect data to enhance your experience and personalize the content and advertising you see.
Visit our Privacy Policy to learn more. By continuing to use the site, you agree to this use of cookies and data.
  • In United Kingdom
  • List of Countries
  • For 7 days
  • Water Temperature
  • Weather Map
  • Weather Widgets
  • user-avatar
    Login

    Hourly Weather Sakkhar

    Today, 16 September, Monday

    Time Temperature Precipitation Wind Pressure Humidity
    00:00 +36°C° 0 mm 6 mps 745 mmHg 45%
    01:00 +36°C° 0 mm 6 mps 745 mmHg 47%
    02:00 +35°C° 0 mm 5 mps 745 mmHg 50%
    03:00 +34°C° 0 mm 5 mps 745 mmHg 52%
    04:00 +34°C° 0 mm 4 mps 745 mmHg 54%
    05:00 +33°C° 0 mm 4 mps 745 mmHg 56%
    06:00 +34°C° 0 mm 4 mps 745 mmHg 54%
    07:00 +34°C° 0 mm 3 mps 746 mmHg 52%
    08:00 +35°C° 0 mm 3 mps 746 mmHg 49%
    09:00 +38°C° 0 mm 3 mps 746 mmHg 41%
    10:00 +40°C° 0 mm 2 mps 746 mmHg 33%
    11:00 +43°C° 0 mm 2 mps 746 mmHg 24%
    12:00 +46°C° 0 mm 2 mps 745 mmHg 20%
    13:00 +47°C° 0 mm 3 mps 744 mmHg 16%
    14:00 +48°C° 0 mm 3 mps 743 mmHg 13%
    15:00 +49°C° 0 mm 4 mps 743 mmHg 12%
    16:00 +49°C° 0 mm 4 mps 742 mmHg 12%
    17:00 +49°C° 0 mm 5 mps 742 mmHg 11%
    18:00 +47°C° 0 mm 6 mps 742 mmHg 16%
    19:00 +45°C° 0 mm 6 mps 743 mmHg 20%
    20:00 +41°C° 0 mm 7 mps 743 mmHg 24%
    21:00 +40°C° 0 mm 7 mps 743 mmHg 30%
    22:00 +39°C° 0 mm 7 mps 743 mmHg 36%
    23:00 +38°C° 0 mm 8 mps 744 mmHg 42%

    Tomorrow, 17 September, Tuesday

    Time Temperature Precipitation Wind Pressure Humidity
    00:00 +36°C° 0 mm 7 mps 744 mmHg 42%
    01:00 +35°C° 0 mm 7 mps 744 mmHg 42%
    02:00 +34°C° 0 mm 6 mps 743 mmHg 42%
    03:00 +33°C° 0 mm 6 mps 744 mmHg 48%
    04:00 +32°C° 0 mm 6 mps 744 mmHg 54%
    05:00 +32°C° 0 mm 5 mps 744 mmHg 59%
    06:00 +32°C° 0 mm 5 mps 744 mmHg 58%
    07:00 +33°C° 0 mm 5 mps 745 mmHg 57%
    08:00 +33°C° 0 mm 4 mps 745 mmHg 56%
    09:00 +36°C° 0 mm 4 mps 746 mmHg 45%
    10:00 +40°C° 0 mm 4 mps 746 mmHg 34%
    11:00 +43°C° 0 mm 4 mps 746 mmHg 23%
    12:00 +45°C° 0 mm 4 mps 745 mmHg 20%
    13:00 +47°C° 0 mm 4 mps 745 mmHg 16%
    14:00 +49°C° 0 mm 5 mps 744 mmHg 13%
    15:00 +49°C° 0 mm 5 mps 744 mmHg 13%
    16:00 +48°C° 0 mm 5 mps 744 mmHg 13%
    17:00 +48°C° 0 mm 6 mps 743 mmHg 13%
    18:00 +46°C° 0 mm 6 mps 744 mmHg 18%
    19:00 +44°C° 0 mm 7 mps 744 mmHg 23%
    20:00 +40°C° 0 mm 8 mps 745 mmHg 28%
    21:00 +39°C° 0 mm 7 mps 745 mmHg 32%
    22:00 +38°C° 0 mm 6 mps 746 mmHg 36%
    23:00 +36°C° 0 mm 6 mps 746 mmHg 40%

    Day after tomorrow, 18 September, Wednesday

    Time Temperature Precipitation Wind Pressure Humidity
    00:00 +35°C° 0 mm 6 mps 746 mmHg 44%
    01:00 +34°C° 0 mm 6 mps 746 mmHg 48%
    02:00 +33°C° 0 mm 5 mps 747 mmHg 51%
    03:00 +33°C° 0 mm 5 mps 747 mmHg 53%
    04:00 +32°C° 0 mm 5 mps 747 mmHg 54%
    05:00 +32°C° 0 mm 4 mps 747 mmHg 55%
    06:00 +33°C° 0 mm 4 mps 748 mmHg 52%
    07:00 +34°C° 0 mm 4 mps 749 mmHg 48%
    08:00 +35°C° 0 mm 4 mps 749 mmHg 45%
    09:00 +37°C° 0 mm 4 mps 749 mmHg 38%
    10:00 +39°C° 0 mm 3 mps 750 mmHg 31%
    11:00 +43°C° 0 mm 3 mps 750 mmHg 24%
    12:00 +44°C° 0 mm 3 mps 749 mmHg 21%
    13:00 +45°C° 0 mm 3 mps 748 mmHg 18%
    14:00 +46°C° 0 mm 3 mps 748 mmHg 15%
    15:00 +46°C° 0 mm 3 mps 747 mmHg 14%
    16:00 +46°C° 0 mm 3 mps 747 mmHg 14%
    17:00 +46°C° 0 mm 3 mps 746 mmHg 13%
    18:00 +44°C° 0 mm 3 mps 747 mmHg 15%
    19:00 +42°C° 0 mm 4 mps 747 mmHg 17%
    20:00 +41°C° 0 mm 4 mps 747 mmHg 19%
    21:00 +40°C° 0 mm 5 mps 748 mmHg 23%
    22:00 +39°C° 0 mm 5 mps 748 mmHg 26%
    23:00 +37°C° 0 mm 5 mps 748 mmHg 30%

    19 September, Thursday

    Time Temperature Precipitation Wind Pressure Humidity
    00:00 +36°C° 0 mm 5 mps 747 mmHg 32%
    01:00 +35°C° 0 mm 5 mps 747 mmHg 34%
    02:00 +35°C° 0 mm 4 mps 747 mmHg 37%
    03:00 +34°C° 0 mm 4 mps 747 mmHg 37%
    04:00 +34°C° 0 mm 4 mps 747 mmHg 38%
    05:00 +34°C° 0 mm 4 mps 747 mmHg 38%
    06:00 +35°C° 0 mm 4 mps 747 mmHg 35%
    07:00 +37°C° 0 mm 4 mps 748 mmHg 33%
    08:00 +39°C° 0 mm 5 mps 748 mmHg 30%
    09:00 +42°C° 0 mm 5 mps 748 mmHg 24%
    10:00 +45°C° 0 mm 5 mps 748 mmHg 17%
    11:00 +48°C° 0 mm 5 mps 748 mmHg 11%
    12:00 +49°C° 0 mm 5 mps 747 mmHg 10%
    13:00 +50°C° 0 mm 4 mps 747 mmHg 9%
    14:00 +50°C° 0 mm 4 mps 746 mmHg 8%
    15:00 +50°C° 0 mm 4 mps 746 mmHg 8%
    16:00 +50°C° 0 mm 5 mps 745 mmHg 8%
    17:00 +49°C° 0 mm 5 mps 745 mmHg 8%
    18:00 +47°C° 0 mm 5 mps 745 mmHg 10%
    19:00 +44°C° 0 mm 4 mps 745 mmHg 11%
    20:00 +42°C° 0 mm 4 mps 746 mmHg 13%
    21:00 +41°C° 0 mm 4 mps 746 mmHg 15%
    22:00 +40°C° 0 mm 4 mps 746 mmHg 18%
    23:00 +39°C° 0 mm 5 mps 746 mmHg 20%

    20 September, Friday

    Time Temperature Precipitation Wind Pressure Humidity
    00:00 +39°C° 0 mm 5 mps 746 mmHg 21%
    01:00 +39°C° 0 mm 6 mps 746 mmHg 22%
    02:00 +39°C° 0 mm 6 mps 746 mmHg 23%
    03:00 +37°C° 0 mm 5 mps 745 mmHg 25%
    04:00 +36°C° 0 mm 5 mps 745 mmHg 28%
    05:00 +35°C° 0 mm 4 mps 745 mmHg 30%
    06:00 +36°C° 0 mm 4 mps 746 mmHg 29%
    07:00 +37°C° 0 mm 5 mps 746 mmHg 27%
    08:00 +39°C° 0 mm 5 mps 747 mmHg 26%
    09:00 +42°C° 0 mm 5 mps 747 mmHg 22%
    10:00 +45°C° 0 mm 4 mps 747 mmHg 17%
    11:00 +48°C° 0 mm 4 mps 747 mmHg 13%
    12:00 +49°C° 0 mm 4 mps 746 mmHg 11%
    13:00 +50°C° 0 mm 3 mps 745 mmHg 10%
    14:00 +51°C° 0 mm 3 mps 745 mmHg 8%
    15:00 +51°C° 0 mm 3 mps 744 mmHg 8%
    16:00 +50°C° 0 mm 4 mps 744 mmHg 8%
    17:00 +50°C° 0 mm 4 mps 744 mmHg 8%
    18:00 +48°C° 0 mm 4 mps 744 mmHg 9%
    19:00 +44°C° 0 mm 3 mps 744 mmHg 11%
    20:00 +42°C° 0 mm 3 mps 744 mmHg 12%
    21:00 +40°C° 0 mm 3 mps 744 mmHg 14%
    22:00 +40°C° 0 mm 4 mps 745 mmHg 17%
    23:00 +38°C° 0 mm 4 mps 745 mmHg 19%

    21 September, Saturday

    Time Temperature Precipitation Wind Pressure Humidity
    00:00 +37°C° 0 mm 4 mps 745 mmHg 21%
    01:00 +37°C° 0 mm 4 mps 745 mmHg 23%
    02:00 +37°C° 0 mm 4 mps 745 mmHg 24%
    03:00 +36°C° 0 mm 4 mps 745 mmHg 27%
    04:00 +36°C° 0 mm 4 mps 744 mmHg 29%
    05:00 +35°C° 0 mm 4 mps 744 mmHg 31%
    06:00 +36°C° 0 mm 4 mps 745 mmHg 29%
    07:00 +38°C° 0 mm 4 mps 746 mmHg 27%
    08:00 +39°C° 0 mm 3 mps 746 mmHg 25%
    09:00 +43°C° 0 mm 3 mps 746 mmHg 21%
    10:00 +45°C° 0 mm 2 mps 746 mmHg 16%
    11:00 +47°C° 0 mm 1 mps 746 mmHg 12%
    12:00 +48°C° 0 mm 1 mps 746 mmHg 10%
    13:00 +49°C° 0 mm 1 mps 745 mmHg 9%
    14:00 +50°C° 0 mm 1 mps 744 mmHg 7%
    15:00 +50°C° 0 mm 2 mps 744 mmHg 7%
    16:00 +50°C° 0 mm 2 mps 743 mmHg 7%
    17:00 +51°C° 0 mm 3 mps 743 mmHg 7%
    18:00 +47°C° 0 mm 2 mps 743 mmHg 8%
    19:00 +45°C° 0 mm 2 mps 743 mmHg 10%
    20:00 +41°C° 0 mm 2 mps 744 mmHg 11%
    21:00 +40°C° 0 mm 3 mps 744 mmHg 13%
    22:00 +41°C° 0 mm 4 mps 744 mmHg 15%
    23:00 +40°C° 0 mm 4 mps 744 mmHg 17%
    Show more